Location: Pl�tzky
(52.0521°N, 11.8020°E)
Time: 01:17:26
(UTC+00:00)

Cosmos 1805 Rocket - Pass Details

Date: 22 November 2019
Orbit: 606 x 630 km, 82.5° (Epoch: 05 December)

Event Time Altitude Azimuth Distance (km) Brightness Sun altitude
Rises 15:59:20 0° 348° (NNW) 2,887 6.9 -7.1°
Reaches altitude 10° 16:01:33 10° 347° (NNW) 1,980 6.1 -7.4°
Maximum altitude 16:05:56 78° 262° (W) 634 3.8 -8.0°
Drops below altitude 10° 16:10:19 10° 176° (S) 1,978 6.4 -8.6°
Sets 16:12:32 0° 175° (S) 2,883 7.2 -9.0°
